AirNav   Air Wisconsin pilot careers
 
 904 users online  

KTNT Dade-Collier Training and Transition Airport
Miami, Florida, USA

GOING TO MIAMI?


FAA INFORMATION EFFECTIVE 08 NOVEMBER 2018

Location

FAA Identifier: TNT
Lat/Long: 25-51-42.5000N / 080-53-49.2000W
25-51.708333N / 080-53.820000W
25.8618056 / -80.8970000
(estimated)
Elevation: 12.7 ft. / 3.9 m (surveyed)
Variation: 05W (2005)
From city: 36 miles W of MIAMI, FL
Time zone: UTC -5 (UTC -4 during Daylight Saving Time)
Zip code: 34141

Airport Operations

Airport use: Open to the public, ARPT CLSD TO PUBLIC EXCP BY ARRANGEMENT WITH MIAMI-DADE AVIATION DEPT MIAMI 305-869-1660.
Control tower: no
ARTCC: MIAMI CENTER
FSS: MIAMI FLIGHT SERVICE STATION
NOTAMs facility: MIA (NOTAM-D service available)
Attendance: CONTINUOUS
Wind indicator: lighted
Segmented circle: yes
Beacon: white-green (lighted land airport)
Operates sunset to sunrise.
Landing fee: yes

Airport Communications

CTAF/UNICOM: 123.0
WX AWOS-3: 119.075 ((239) 695-9198)
MIAMI APPROACH: 128.6
MIAMI DEPARTURE: 128.6
  • APCH/DEP SVC PRVDD BY MIAMI ATCT ON FREQS 128.6/306.975

Nearby radio navigation aids

VOR radial/distance  VOR name  Freq  Var
DHPr281/29.8DOLPHIN VORTAC113.9004W

 
NDB name  Hdg/Dist  Freq  Var  ID
MONRY095/6.222705WTN - -.

Airport Services

Airframe service: NONE
Powerplant service: NONE
Bottled oxygen: NONE
Bulk oxygen: NONE

Runway Information

Runway 9/27

Dimensions: 10499 x 150 ft. / 3200 x 46 m
Surface: asphalt/porous friction courses, in good condition
Weight bearing capacity: 
Single wheel: 130.0
Double wheel: 200.0
Double tandem: 400.0
Dual double tandem: 800.0
RUNWAY 9  RUNWAY 27
Latitude: 25-51.708232N25-51.707022N
Longitude: 080-54.777252W080-52.861753W
Elevation: 12.6 ft.12.4 ft.
Traffic pattern: leftright
Runway heading: 095 magnetic, 090 true275 magnetic, 270 true
Markings: precision, in fair conditionprecision, in fair condition
Touchdown point: yes, no lightsyes, no lights
Instrument approach: ILS
Obstructions: 4 ft. brush, 200 ft. from runway, 295 ft. right of centerline
+4' BRUSH, 13' FM RY END, 295' R OF CNTRLN.
4 ft. brush, 200 ft. from runway, 327 ft. right of centerline
+4' BRUSH, 56' FM RY END, 327' R OF CNTRLN.

Airport Ownership and Management from official FAA records

Ownership: Publicly-owned
Owner: MIAMI-DADE COUNTY
MIAMI-DADE AVIATION DEPARTMENT, P.O. BOX 025504
MIAMI, FL 33102-5504
Phone (305) 876-0464
Manager: NELSON MEJIAS
14201 NORTHWEST LEJEUNE ROAD
OPA-LOCKA, FL 33054
Phone (305) 869-1662
AIRPORT PHYSICAL ADDRESS: 54757 EAST TAMIAMI TRAIL, OCHOPPI, FL 34141 239-695-3300, FAX: 305-876-0565

Airport Operational Statistics

Aircraft operations: avg 40/day *
100% transient general aviation
* for 12-month period ending 26 October 2016

Additional Remarks

A100 ACR TRNG OPNS ONLY.
THREE 8IN WELLS FLUSH MTD BTN RWY AND TWY.
FEE FOR USE FOR ACFT OVER 12500 LBS.
MAEW IN BUFFER ISLAND BTN RY 09/27 & TWY.
WILDLIFE OCCASIONALLY ON & INVOF ARPT.
BE ALERT TO LOW FLYING NATIONAL PARK SVC ACFT ALL QUADRANTS.

Instrument Procedures

NOTE: All procedures below are presented as PDF files. If you need a reader for these files, you should download the free Adobe Reader.

NOT FOR NAVIGATION. Please procure official charts for flight.
FAA instrument procedures published for use from 8 November 2018 at 0901Z to 6 December 2018 at 0900Z.

 
IAPs - Instrument Approach Procedures
RNAV (GPS) RWY 09   download (222KB)

Other nearby airports with instrument procedures:

KTMB - Miami Executive Airport (28 nm SE)
X51 - Miami Homestead General Aviation Airport (29 nm SE)
KMIA - Miami International Airport (33 nm E)
KOPF - Miami-Opa Locka Executive Airport (34 nm E)
KHST - Homestead Air Reserve Base (36 nm SE)
 
Loc | Ops | Rwys | IFR | FBO | Links
Com | Nav | Svcs | Stats | Notes

Reliance Aviation
AirBoss

 
Area around KTNT (Dade-Collier Training and Transition Airport)
 
Road maps at: MapQuest Bing Google
 
Aerial photo
WARNING: Photo may not be current or correct
Aerial photo of KTNT (Dade-Collier Training and Transition Airport)
Do you have a better or more recent aerial photo of Dade-Collier Training and Transition Airport that you would like to share? If so, please send us your photo.

 
Sectional chart

 
Airport distance calculator
Flying to Dade-Collier Training and Transition Airport? Find the distance to fly.

From to KTNT

Sunrise and sunset
Times for 17-Nov-2018
 Local
(UTC-5)
 Zulu
(UTC)
Morning civil twilight06:2011:20
Sunrise06:4411:44
Sunset17:3322:33
Evening civil twilight17:5722:57

Current date and time
Zulu (UTC)  17-Nov-2018 21:42:20
Local (UTC-5)  17-Nov-2018 16:42:20
 
METAR
KTMB 
28nm SE 
172053Z 08013KT 10SM OVC065 26/17 A3004 RMK AO2 SLP170 T02560167 55008
KMIA 
32nm E 
172053Z 07012KT 10SM SCT036 OVC065 24/18 A3005 RMK AO2 SLP174 T02440178 55006
KOPF 
33nm E 
172053Z 06012KT 10SM SCT038 BKN050 OVC065 26/17 A3005 RMK AO2 SLP178 T02560172 55007
KHWO 
37nm E 
172053Z 05011KT 10SM BKN042 OVC065 26/17 A3006 RMK AO2 SLP180 T02560167 55006
KHST 
37nm SE 
172056Z AUTO 04013G18KT 10SM OVC050 25/18 A3003 RMK AO2 SLP172 T02470181 55007 FZRANO VISNO RWY24 $
KFLL 
42nm E 
172053Z 06011KT 10SM SCT035 BKN065 25/17 A3004 RMK AO2 SLP173 T02500172 55004
KMKY 
43nm W 
172056Z AUTO 05007KT 10SM OVC065 25/17 A3006 RMK AO2 SLP179 T02500167 56010
KFXE 
43nm NE 
172053Z 04009KT 10SM SCT038 SCT045 24/17 A3005 RMK AO2 SLP178 T02440172 55005
KIMM 
44nm NW 
172115Z AUTO 04009KT 10SM CLR 26/12 A3006 RMK A01
KPMP 
48nm NE 
172053Z 04011KT 10SM SCT039 26/16 A3005 RMK AO2 SLP177 T02610161 55006
TAF
KTMB 
28nm SE 
171725Z 1718/1818 05011KT P6SM BKN060 FM172300 04006KT P6SM BKN060 FM180200 VRB03KT P6SM BKN050 FM181600 07010KT P6SM SCT030 SCT050
KMIA 
32nm E 
171725Z 1718/1824 05011KT P6SM SCT030 BKN060 FM172300 04007KT P6SM BKN060 FM180300 VRB03KT P6SM BKN050 FM181600 07008KT P6SM SCT030 SCT050
KOPF 
33nm E 
171725Z 1718/1818 06011KT P6SM SCT040 BKN070 FM172300 04008KT P6SM BKN060 FM180300 VRB03KT P6SM BKN050 FM181600 07009KT P6SM SCT030 SCT050
NOTAMs
Click for the latest NOTAMs
NOTAMs are issued by the DoD/FAA and will open in a separate window not controlled by AirNav.

 

 
 

Would you like to see your business listed on this page?

 If your business provides an interesting product or service to pilots, flight crews, aircraft, or users of the Dade-Collier Training and Transition Airport, you should consider listing it here.  To start the listing process, click on the button below
 
Add a business
 

Other Pages about Dade-Collier Training and Transition Airport

Update a link
 
Copyright © AirNav, LLC. All rights reserved. Privacy Policy  Contact